Flag for Colombia Weather past 2 weeks in Cúcuta, Colombia

Now
81 °F

Passing clouds.


Feels Like: 83 °F
Forecast: 71 / 100 °F
Wind: N/A

Location: San Antonio Del Tachira Airport

Current Time: Oct 1, 2014 at 9:22:39 PM

Latest Report: Oct 1, 2014 at 8:00 PM


Visibility: N/A

Pressure: 29.92 "Hg

Humidity: 66%

Dew point: 68 °F

Location of CúcutaLocation

Historic Weather in Cúcuta — Graph

°F

Cúcuta temperature yesterday

Maximum temperature yesterday: 97 °F (at 12:00 PM)
Minimum temperature yesterday: 81 °F (at 4:00 AM)
Average temperature yesterday: 90 °F

Past Weeks' High & Low Weather Summary

 TemperatureHumidityPressure
High100 °F (Sep 25, 1:00 PM)100% (Sep 17, 1:00 AM)30.01 "Hg (Sep 17, 1:00 AM)
Low70 °F (Sep 17, 4:00 AM)27% (Sep 19, 1:00 PM)29.62 "Hg (Sep 21, 8:00 PM)
Average86 °F55%29.91 "Hg
* Reported Sep 16 8:00 PM — Oct 1 8:00 PM, Cúcuta, Weather by CustomWeather, © 2014

Note: Actual official high and low records may vary slightly from our data, if they occured in-between our weather recording intervals... More about our weather records

Advertising

Cúcuta weather history for previous 24 hours

 ConditionsComfort  
Time TempWeatherWind HumidityBarometerVisibility
8:00 PM
Oct 1
81 °FPassing clouds.N/A66%29.92 "HgN/A
6:00 PM79 °FPassing clouds.N/A70%29.89 "HgN/A
5:00 PM81 °FPartly sunny.N/A70%29.83 "HgN/A
4:00 PM70 °FPartly sunny.N/A100%29.86 "HgN/A
3:00 PM95 °FScattered clouds.N/A41%29.89 "HgN/A
2:00 PM97 °FPartly sunny.N/A42%29.86 "HgN/A
1:00 PM95 °FPartly sunny.N/A44%29.92 "HgN/A
12:00 PM93 °FPartly sunny.N/A47%29.92 "HgN/A
11:00 AM91 °FScattered clouds.N/A46%29.95 "HgN/A
10:00 AM90 °FPartly sunny.N/A49%29.95 "HgN/A
9:00 AM86 °FScattered clouds.N/A55%29.95 "HgN/A
8:00 AM86 °FPartly sunny.N/A52%29.92 "HgN/A
7:00 AM82 °FPartly sunny.N/A62%29.95 "HgN/A
6:00 AM82 °FScattered clouds.N/A58%29.92 "HgN/A
5:00 AM82 °FPassing clouds.N/A62%29.92 "HgN/A
4:00 AM81 °FPassing clouds.N/A58%29.95 "HgN/A
1:00 AM84 °FPassing clouds.N/A58%29.95 "HgN/A
10:00 PM
Sep 30
84 °FPassing clouds.N/A58%29.95 "HgN/A
9:00 PM86 °FPassing clouds.N/A52%29.92 "HgN/A
Weather by CustomWeather, © 2014

See weather overviewHow to use our weather pages